When you browse on this site, cookies collect data to enhance your experience and personalize the content and advertising you see.
Visit our Privacy Policy to learn more. By continuing to use the site, you agree to this use of cookies and data.
  • Em Portugal
  • Lista de países
  • Para 7 dias
  • Temperatura da água
  • Mapa do tempo
  • Widgets de tempo
  • user-avatar
    Iniciar Sessão

    Previsão horária em Vrush

    Hoje, 2 Junho, Terça-feira

    Tempo Temperatura Precipitação Vento Pressão Humidade
    00:00 +11°C° 0 mm 1 m/s 604 mmHg 55%
    01:00 +11°C° 0 mm 1 m/s 604 mmHg 57%
    02:00 +11°C° 0 mm 1 m/s 604 mmHg 58%
    03:00 +11°C° 0 mm 1 m/s 604 mmHg 59%
    04:00 +13°C° 0 mm 1 m/s 605 mmHg 58%
    05:00 +14°C° 0 mm 1 m/s 605 mmHg 56%
    06:00 +16°C° 0 mm 1 m/s 606 mmHg 54%
    07:00 +18°C° 0 mm 2 m/s 607 mmHg 48%
    08:00 +19°C° 0 mm 3 m/s 607 mmHg 42%
    09:00 +21°C° 0 mm 3 m/s 608 mmHg 36%
    10:00 +22°C° 0 mm 3 m/s 608 mmHg 36%
    11:00 +22°C° 0 mm 4 m/s 608 mmHg 36%
    12:00 +22°C° 0 mm 4 m/s 608 mmHg 36%
    13:00 +22°C° 0 mm 4 m/s 608 mmHg 37%
    14:00 +23°C° 0 mm 4 m/s 608 mmHg 37%
    15:00 +24°C° 0 mm 3 m/s 607 mmHg 37%
    16:00 +20°C° 0.6 mm 3 m/s 606 mmHg 50%
    17:00 +18°C° 0.6 mm 3 m/s 605 mmHg 62%
    18:00 +14°C° 0.6 mm 3 m/s 604 mmHg 75%
    19:00 +14°C° 0.6 mm 2 m/s 604 mmHg 77%
    20:00 +13°C° 0.6 mm 2 m/s 604 mmHg 78%
    21:00 +12°C° 0.6 mm 2 m/s 603 mmHg 79%
    22:00 +12°C° 0.2 mm 2 m/s 603 mmHg 77%
    23:00 +12°C° 0.2 mm 2 m/s 602 mmHg 74%

    Amanhã, 3 Junho, Quarta-feira

    Tempo Temperatura Precipitação Vento Pressão Humidade
    00:00 +12°C° 0.2 mm 2 m/s 602 mmHg 71%
    01:00 +12°C° 0.1 mm 2 m/s 602 mmHg 71%
    02:00 +12°C° 0.1 mm 1 m/s 602 mmHg 71%
    03:00 +12°C° 0.1 mm 1 m/s 602 mmHg 71%
    04:00 +13°C° 0.1 mm 2 m/s 602 mmHg 70%
    05:00 +14°C° 0.1 mm 2 m/s 603 mmHg 70%
    06:00 +16°C° 0.1 mm 2 m/s 603 mmHg 69%
    07:00 +17°C° 0 mm 2 m/s 604 mmHg 60%
    08:00 +19°C° 0 mm 3 m/s 605 mmHg 51%
    09:00 +21°C° 0 mm 3 m/s 606 mmHg 43%
    10:00 +21°C° 0 mm 3 m/s 606 mmHg 39%
    11:00 +22°C° 0 mm 3 m/s 606 mmHg 36%
    12:00 +22°C° 0 mm 3 m/s 606 mmHg 32%
    13:00 +22°C° 0 mm 3 m/s 606 mmHg 32%
    14:00 +22°C° 0 mm 3 m/s 606 mmHg 32%
    15:00 +23°C° 0 mm 2 m/s 606 mmHg 32%
    16:00 +20°C° 0.1 mm 2 m/s 606 mmHg 43%
    17:00 +18°C° 0.1 mm 2 m/s 605 mmHg 53%
    18:00 +16°C° 0.1 mm 2 m/s 605 mmHg 64%
    19:00 +15°C° 0 mm 2 m/s 605 mmHg 65%
    20:00 +14°C° 0 mm 2 m/s 604 mmHg 65%
    21:00 +12°C° 0 mm 2 m/s 604 mmHg 66%
    22:00 +12°C° 0.1 mm 2 m/s 604 mmHg 66%
    23:00 +12°C° 0.1 mm 2 m/s 604 mmHg 66%

    Depois de amanhã, 4 Junho, Quinta-feira

    Tempo Temperatura Precipitação Vento Pressão Humidade
    00:00 +12°C° 0.1 mm 2 m/s 604 mmHg 66%
    01:00 +12°C° 0.1 mm 2 m/s 604 mmHg 69%
    02:00 +10°C° 0.1 mm 2 m/s 605 mmHg 71%
    03:00 +10°C° 0.1 mm 2 m/s 605 mmHg 74%
    04:00 +12°C° 0 mm 2 m/s 606 mmHg 73%
    05:00 +13°C° 0 mm 1 m/s 606 mmHg 71%
    06:00 +14°C° 0 mm 1 m/s 607 mmHg 70%
    07:00 +16°C° 0 mm 2 m/s 608 mmHg 62%
    08:00 +17°C° 0 mm 2 m/s 609 mmHg 53%
    09:00 +19°C° 0 mm 3 m/s 609 mmHg 45%
    10:00 +19°C° 0 mm 3 m/s 610 mmHg 44%
    11:00 +20°C° 0 mm 3 m/s 610 mmHg 42%
    12:00 +20°C° 0 mm 3 m/s 610 mmHg 41%
    13:00 +20°C° 0 mm 3 m/s 610 mmHg 43%
    14:00 +20°C° 0 mm 3 m/s 610 mmHg 44%
    15:00 +20°C° 0 mm 3 m/s 610 mmHg 45%
    16:00 +19°C° 0 mm 3 m/s 609 mmHg 52%
    17:00 +18°C° 0 mm 3 m/s 609 mmHg 59%
    18:00 +17°C° 0 mm 3 m/s 609 mmHg 65%
    19:00 +16°C° 0 mm 2 m/s 608 mmHg 72%
    20:00 +14°C° 0 mm 2 m/s 608 mmHg 79%
    21:00 +12°C° 0 mm 2 m/s 607 mmHg 86%
    22:00 +12°C° 0 mm 2 m/s 607 mmHg 84%
    23:00 +12°C° 0 mm 2 m/s 607 mmHg 81%

    5 Junho, Sexta-feira

    Tempo Temperatura Precipitação Vento Pressão Humidade
    00:00 +10°C° 0 mm 2 m/s 607 mmHg 78%
    01:00 +10°C° 0 mm 2 m/s 607 mmHg 76%
    02:00 +10°C° 0 mm 2 m/s 607 mmHg 73%
    03:00 +10°C° 0 mm 2 m/s 607 mmHg 71%
    04:00 +13°C° 0 mm 2 m/s 608 mmHg 69%
    05:00 +14°C° 0 mm 1 m/s 609 mmHg 67%
    06:00 +15°C° 0 mm 1 m/s 610 mmHg 66%
    07:00 +17°C° 0 mm 2 m/s 610 mmHg 61%
    08:00 +18°C° 0 mm 2 m/s 611 mmHg 55%
    09:00 +19°C° 0 mm 2 m/s 612 mmHg 50%
    10:00 +19°C° 0.3 mm 3 m/s 612 mmHg 50%
    11:00 +20°C° 0.3 mm 3 m/s 612 mmHg 50%
    12:00 +20°C° 0.3 mm 3 m/s 612 mmHg 49%
    13:00 +20°C° 0.2 mm 4 m/s 612 mmHg 50%
    14:00 +19°C° 0.2 mm 4 m/s 612 mmHg 51%
    15:00 +19°C° 0.2 mm 4 m/s 611 mmHg 52%
    16:00 +18°C° 0.3 mm 3 m/s 611 mmHg 58%
    17:00 +17°C° 0.3 mm 2 m/s 611 mmHg 64%
    18:00 +15°C° 0.3 mm 2 m/s 610 mmHg 70%
    19:00 +14°C° 0.4 mm 1 m/s 610 mmHg 76%
    20:00 +12°C° 0.4 mm 1 m/s 610 mmHg 81%
    21:00 +11°C° 0.4 mm 1 m/s 610 mmHg 87%
    22:00 +10°C° 0.1 mm 1 m/s 610 mmHg 87%
    23:00 +10°C° 0.1 mm 1 m/s 610 mmHg 87%

    6 Junho, Sábado

    Tempo Temperatura Precipitação Vento Pressão Humidade
    00:00 +9°C° 0.1 mm 1 m/s 609 mmHg 88%
    01:00 +9°C° 0 mm 1 m/s 609 mmHg 86%
    02:00 +9°C° 0 mm 1 m/s 609 mmHg 85%
    03:00 +9°C° 0 mm 1 m/s 609 mmHg 83%
    04:00 +10°C° 0 mm 1 m/s 610 mmHg 80%
    05:00 +10°C° 0 mm 0 m/s 611 mmHg 77%
    06:00 +12°C° 0 mm 0 m/s 611 mmHg 73%
    07:00 +14°C° 0.1 mm 1 m/s 612 mmHg 70%
    08:00 +15°C° 0.1 mm 1 m/s 612 mmHg 68%
    09:00 +16°C° 0.1 mm 2 m/s 613 mmHg 65%
    10:00 +17°C° 0.4 mm 2 m/s 613 mmHg 65%
    11:00 +17°C° 0.4 mm 3 m/s 613 mmHg 65%
    12:00 +18°C° 0.4 mm 3 m/s 613 mmHg 65%
    13:00 +17°C° 0.6 mm 3 m/s 612 mmHg 66%
    14:00 +17°C° 0.6 mm 2 m/s 612 mmHg 68%
    15:00 +17°C° 0.6 mm 2 m/s 612 mmHg 69%
    16:00 +16°C° 0.4 mm 2 m/s 611 mmHg 72%
    17:00 +16°C° 0.4 mm 2 m/s 611 mmHg 75%
    18:00 +15°C° 0.4 mm 1 m/s 611 mmHg 78%
    19:00 +14°C° 0.6 mm 1 m/s 610 mmHg 82%
    20:00 +13°C° 0.6 mm 1 m/s 610 mmHg 85%
    21:00 +11°C° 0.6 mm 1 m/s 610 mmHg 88%
    22:00 +11°C° 0.1 mm 1 m/s 610 mmHg 86%
    23:00 +11°C° 0.1 mm 1 m/s 609 mmHg 84%

    7 Junho, Domingo

    Tempo Temperatura Precipitação Vento Pressão Humidade
    00:00 +11°C° 0.1 mm 1 m/s 609 mmHg 81%
    01:00 +10°C° 0 mm 1 m/s 609 mmHg 79%
    02:00 +9°C° 0 mm 1 m/s 609 mmHg 76%
    03:00 +9°C° 0 mm 1 m/s 608 mmHg 74%
    04:00 +10°C° 0 mm 1 m/s 609 mmHg 71%
    05:00 +12°C° 0 mm 1 m/s 610 mmHg 69%
    06:00 +12°C° 0 mm 0 m/s 611 mmHg 66%
    07:00 +15°C° 0 mm 1 m/s 611 mmHg 63%
    08:00 +16°C° 0 mm 1 m/s 612 mmHg 61%
    09:00 +17°C° 0 mm 2 m/s 613 mmHg 58%
    10:00 +18°C° 0.1 mm 2 m/s 613 mmHg 60%
    11:00 +18°C° 0.1 mm 2 m/s 613 mmHg 61%
    12:00 +19°C° 0.1 mm 3 m/s 613 mmHg 63%
    13:00 +19°C° 0.8 mm 2 m/s 612 mmHg 67%
    14:00 +18°C° 0.8 mm 2 m/s 612 mmHg 70%
    15:00 +18°C° 0.8 mm 2 m/s 612 mmHg 74%
    16:00 +18°C° 0.8 mm 1 m/s 611 mmHg 76%
    17:00 +18°C° 0.8 mm 1 m/s 611 mmHg 78%
    18:00 +16°C° 0.8 mm 1 m/s 611 mmHg 80%
    19:00 +15°C° 0.3 mm 1 m/s 611 mmHg 83%
    20:00 +14°C° 0.3 mm 1 m/s 610 mmHg 86%
    21:00 +12°C° 0.3 mm 1 m/s 610 mmHg 89%
    22:00 +12°C° 0 mm 1 m/s 610 mmHg 89%
    23:00 +11°C° 0 mm 1 m/s 609 mmHg 89%
    Mostrar mais